Time,TemperatureF,DewpointF,PressureIn,WindDirection,WindDirectionDegrees,WindSpeedMPH,WindSpeedGustMPH,Humidity,HourlyPrecipIn,Conditions,Clouds,dailyrainin,SoftwareType,DateUTC
2013-03-10 00:02:00,25.0,22.0,30.33,North,0,0.0,0.0,90,0.00,,,0.54,,2013-03-10 05:02:00,
2013-03-10 00:11:00,25.0,22.0,30.33,North,0,0.0,0.0,90,0.00,,,0.54,,2013-03-10 05:11:00,
2013-03-10 00:22:00,25.0,22.0,30.34,North,0,0.0,0.0,90,0.00,,,0.54,,2013-03-10 05:22:00,
2013-03-10 00:32:00,24.0,22.0,30.34,North,0,0.0,0.0,90,0.00,,,0.54,,2013-03-10 05:32:00,
2013-03-10 00:42:00,24.0,22.0,30.34,North,0,0.0,0.0,90,0.00,,,0.54,,2013-03-10 05:42:00,
2013-03-10 00:52:00,24.0,22.0,30.34,North,0,0.0,0.0,90,0.00,,,0.54,,2013-03-10 05:52:00,
2013-03-10 01:01:00,24.0,22.0,30.35,North,0,0.0,0.0,90,0.00,,,0.54,,2013-03-10 06:01:00,
2013-03-10 01:11:00,24.0,22.0,30.35,North,0,0.0,0.0,90,0.00,,,0.54,,2013-03-10 06:11:00,
2013-03-10 01:22:00,24.0,22.0,30.35,North,0,0.0,0.0,90,0.00,,,0.54,,2013-03-10 06:22:00,
2013-03-10 01:32:00,23.0,21.0,30.35,North,0,0.0,0.0,90,0.00,,,0.54,,2013-03-10 06:32:00,
2013-03-10 01:42:00,23.0,21.0,30.35,North,0,0.0,0.0,90,0.00,,,0.54,,2013-03-10 06:42:00,
2013-03-10 01:52:00,23.0,21.0,30.35,North,0,0.0,0.0,90,0.00,,,0.54,,2013-03-10 06:52:00,
2013-03-10 03:02:00,23.0,21.0,30.36,North,0,0.0,0.0,90,0.00,,,0.54,,2013-03-10 07:02:00,
2013-03-10 03:11:00,23.0,21.0,30.36,North,0,0.0,0.0,90,0.00,,,0.54,,2013-03-10 07:11:00,
2013-03-10 03:21:00,22.0,20.0,30.35,North,0,0.0,0.0,90,0.00,,,0.54,,2013-03-10 07:21:00,
2013-03-10 03:32:00,22.0,20.0,30.35,North,0,0.0,0.0,90,0.00,,,0.54,,2013-03-10 07:32:00,
2013-03-10 03:42:00,22.0,20.0,30.35,North,0,0.0,0.0,90,0.00,,,0.54,,2013-03-10 07:42:00,
2013-03-10 03:52:00,22.0,20.0,30.35,North,0,0.0,0.0,90,0.00,,,0.54,,2013-03-10 07:52:00,
2013-03-10 04:01:00,22.0,20.0,30.35,North,0,0.0,0.0,90,0.00,,,0.54,,2013-03-10 08:01:00,
2013-03-10 04:11:00,22.0,20.0,30.35,North,0,0.0,0.0,90,0.00,,,0.54,,2013-03-10 08:11:00,
2013-03-10 04:21:00,22.0,20.0,30.35,North,0,0.0,0.0,90,0.00,,,0.54,,2013-03-10 08:21:00,
2013-03-10 04:32:00,21.0,19.0,30.35,North,0,0.0,0.0,90,0.00,,,0.54,,2013-03-10 08:32:00,
2013-03-10 04:42:00,21.0,19.0,30.35,North,0,0.0,0.0,90,0.00,,,0.54,,2013-03-10 08:42:00,
2013-03-10 04:51:00,21.0,19.0,30.35,North,0,0.0,0.0,90,0.00,,,0.54,,2013-03-10 08:51:00,
2013-03-10 05:02:00,21.0,19.0,30.35,North,0,0.0,0.0,90,0.00,,,0.54,,2013-03-10 09:02:00,
2013-03-10 05:11:00,21.0,19.0,30.35,North,0,0.0,0.0,90,0.00,,,0.54,,2013-03-10 09:11:00,
2013-03-10 05:21:00,21.0,19.0,30.36,North,0,0.0,0.0,90,0.00,,,0.54,,2013-03-10 09:21:00,
2013-03-10 05:31:00,21.0,19.0,30.36,North,0,0.0,0.0,90,0.00,,,0.54,,2013-03-10 09:31:00,
2013-03-10 05:41:00,21.0,19.0,30.36,North,0,0.0,0.0,90,0.00,,,0.54,,2013-03-10 09:41:00,
2013-03-10 05:51:00,20.0,18.0,30.36,North,0,0.0,0.0,90,0.00,,,0.54,,2013-03-10 09:51:00,
2013-03-10 06:02:00,20.0,18.0,30.36,North,0,0.0,0.0,90,0.00,,,0.54,,2013-03-10 10:02:00,
2013-03-10 06:11:00,20.0,18.0,30.36,North,0,0.0,0.0,90,0.00,,,0.54,,2013-03-10 10:11:00,
2013-03-10 06:21:00,20.0,18.0,30.36,North,0,0.0,0.0,90,0.00,,,0.54,,2013-03-10 10:21:00,
2013-03-10 06:32:00,20.0,18.0,30.36,North,0,0.0,0.0,90,0.00,,,0.54,,2013-03-10 10:32:00,
2013-03-10 06:42:00,19.0,17.0,30.37,North,0,0.0,0.0,90,0.00,,,0.54,,2013-03-10 10:42:00,
2013-03-10 06:52:00,19.0,17.0,30.37,North,0,0.0,0.0,90,0.00,,,0.54,,2013-03-10 10:52:00,
2013-03-10 07:02:00,19.0,17.0,30.37,North,0,0.0,0.0,90,0.00,,,0.54,,2013-03-10 11:02:00,
2013-03-10 07:12:00,19.0,17.0,30.37,North,0,0.0,0.0,90,0.00,,,0.54,,2013-03-10 11:12:00,
2013-03-10 07:21:00,19.0,17.0,30.37,North,0,0.0,0.0,90,0.00,,,0.54,,2013-03-10 11:21:00,
2013-03-10 07:32:00,19.0,17.0,30.37,North,0,0.0,0.0,90,0.00,,,0.54,,2013-03-10 11:32:00,
2013-03-10 07:42:00,19.0,17.0,30.37,North,0,0.0,0.0,90,0.00,,,0.54,,2013-03-10 11:42:00,
2013-03-10 07:52:00,19.0,17.0,30.39,North,0,0.0,0.0,90,0.00,,,0.54,,2013-03-10 11:52:00,
2013-03-10 08:02:00,19.0,17.0,30.39,North,0,0.0,0.0,90,0.00,,,0.54,,2013-03-10 12:02:00,
2013-03-10 08:11:00,19.0,17.0,30.39,North,0,0.0,0.0,90,0.00,,,0.54,,2013-03-10 12:11:00,
2013-03-10 08:21:00,19.0,17.0,30.39,North,0,0.0,0.0,90,0.00,,,0.54,,2013-03-10 12:21:00,
2013-03-10 08:32:00,19.0,17.0,30.39,North,0,0.0,0.0,90,0.00,,,0.54,,2013-03-10 12:32:00,
2013-03-10 08:42:00,19.0,17.0,30.39,North,0,0.0,0.0,90,0.00,,,0.54,,2013-03-10 12:42:00,
2013-03-10 08:51:00,21.0,19.0,30.40,North,0,0.0,0.0,91,0.00,,,0.53,,2013-03-10 12:51:00,
2013-03-10 09:01:00,21.0,19.0,30.40,North,0,0.0,0.0,91,0.00,,,0.53,,2013-03-10 13:01:00,
2013-03-10 09:11:00,21.0,19.0,30.40,North,0,0.0,0.0,91,0.00,,,0.53,,2013-03-10 13:11:00,
2013-03-10 09:21:00,26.0,24.0,30.40,North,0,0.0,0.0,92,0.00,,,0.47,,2013-03-10 13:21:00,
2013-03-10 09:32:00,29.0,27.0,30.40,SSW,192,0.0,1.0,92,0.00,,,0.43,,2013-03-10 13:32:00,
2013-03-10 09:42:00,29.0,27.0,30.40,SSW,192,0.0,1.0,92,0.00,,,0.43,,2013-03-10 13:42:00,
2013-03-10 09:52:00,29.0,27.0,30.40,SSW,192,0.0,1.0,92,0.00,,,0.43,,2013-03-10 13:52:00,
2013-03-10 10:02:00,29.0,27.0,30.40,SSW,192,0.0,1.0,92,0.00,,,0.43,,2013-03-10 14:02:00,
2013-03-10 10:11:00,29.0,27.0,30.40,SSW,192,0.0,1.0,92,0.00,,,0.43,,2013-03-10 14:11:00,
2013-03-10 10:22:00,36.0,30.0,30.39,SW,219,0.0,2.0,78,0.01,,,0.33,,2013-03-10 14:22:00,
2013-03-10 10:32:00,38.0,31.0,30.38,SW,219,0.0,1.0,76,0.01,,,0.26,,2013-03-10 14:32:00,
2013-03-10 10:42:00,38.0,31.0,30.38,SW,219,0.0,1.0,76,0.01,,,0.26,,2013-03-10 14:42:00,
2013-03-10 10:51:00,40.0,32.0,30.38,West,270,0.0,3.0,72,0.00,,,0.23,,2013-03-10 14:51:00,
2013-03-10 11:01:00,40.0,31.0,30.38,NNE,16,1.0,3.0,69,0.00,,,0.17,,2013-03-10 15:01:00,
2013-03-10 11:11:00,40.0,31.0,30.38,NNE,16,1.0,3.0,69,0.00,,,0.17,,2013-03-10 15:11:00,
2013-03-10 11:21:00,40.0,31.0,30.38,NNE,16,1.0,3.0,69,0.00,,,0.17,,2013-03-10 15:21:00,
2013-03-10 11:32:00,42.0,31.0,30.37,East,83,1.0,5.0,65,0.00,,,0.09,,2013-03-10 15:32:00,
2013-03-10 11:42:00,42.0,31.0,30.37,East,83,1.0,5.0,65,0.00,,,0.09,,2013-03-10 15:42:00,
2013-03-10 11:52:00,42.0,31.0,30.37,East,83,1.0,5.0,65,0.00,,,0.09,,2013-03-10 15:52:00,
2013-03-10 12:02:00,42.0,31.0,30.36,ESE,120,1.0,4.0,64,0.00,,,0.04,,2013-03-10 16:02:00,
2013-03-10 12:12:00,42.0,31.0,30.36,ESE,120,1.0,4.0,64,0.00,,,0.04,,2013-03-10 16:12:00,
2013-03-10 12:21:00,42.0,30.0,30.35,SE,127,1.0,5.0,61,0.00,,,0.04,,2013-03-10 16:21:00,
2013-03-10 12:32:00,42.0,30.0,30.35,SE,127,1.0,5.0,61,0.00,,,0.04,,2013-03-10 16:32:00,
2013-03-10 12:41:00,42.0,30.0,30.35,SE,127,1.0,5.0,61,0.00,,,0.04,,2013-03-10 16:41:00,
2013-03-10 12:52:00,45.0,32.0,30.35,ENE,68,1.0,4.0,61,0.00,,,0.02,,2013-03-10 16:52:00,
2013-03-10 13:01:00,45.0,32.0,30.34,NNW,338,1.0,3.0,60,0.00,,,0.01,,2013-03-10 17:01:00,
2013-03-10 13:11:00,45.0,32.0,30.34,NNW,338,1.0,3.0,60,0.00,,,0.01,,2013-03-10 17:11:00,
2013-03-10 13:21:00,43.0,30.0,30.35,SE,144,2.0,7.0,61,0.00,,,0.01,,2013-03-10 17:21:00,
2013-03-10 13:32:00,44.0,31.0,30.34,South,175,2.0,7.0,61,0.00,,,0.01,,2013-03-10 17:32:00,
2013-03-10 13:41:00,44.0,31.0,30.34,South,175,2.0,7.0,61,0.00,,,0.01,,2013-03-10 17:41:00,
2013-03-10 13:51:00,44.0,31.0,30.34,SE,141,1.0,6.0,59,0.00,,,0.01,,2013-03-10 17:51:00,
2013-03-10 14:01:00,44.0,31.0,30.34,SE,141,1.0,6.0,59,0.00,,,0.01,,2013-03-10 18:01:00,
2013-03-10 14:11:00,44.0,31.0,30.34,SE,141,1.0,6.0,59,0.00,,,0.01,,2013-03-10 18:11:00,
2013-03-10 14:22:00,44.0,30.0,30.33,ESE,122,1.0,5.0,57,0.00,,,0.01,,2013-03-10 18:22:00,
2013-03-10 14:32:00,44.0,30.0,30.32,SW,227,2.0,5.0,58,0.00,,,0.01,,2013-03-10 18:32:00,
2013-03-10 14:42:00,44.0,30.0,30.32,SW,227,2.0,5.0,58,0.00,,,0.01,,2013-03-10 18:42:00,
2013-03-10 14:52:00,46.0,32.0,30.32,SE,140,1.0,4.0,58,0.00,,,0.01,,2013-03-10 18:52:00,
2013-03-10 15:02:00,47.0,31.0,30.31,East,93,1.0,7.0,54,0.00,,,0.01,,2013-03-10 19:02:00,
2013-03-10 15:11:00,47.0,31.0,30.31,East,93,1.0,7.0,54,0.00,,,0.01,,2013-03-10 19:11:00,
2013-03-10 15:21:00,47.0,31.0,30.31,East,93,1.0,7.0,54,0.00,,,0.01,,2013-03-10 19:21:00,
2013-03-10 15:32:00,47.0,31.0,30.31,East,96,2.0,7.0,54,0.00,,,0.01,,2013-03-10 19:32:00,
2013-03-10 15:42:00,47.0,31.0,30.31,East,96,2.0,7.0,54,0.00,,,0.01,,2013-03-10 19:42:00,
2013-03-10 15:53:00,47.0,31.0,30.31,ESE,111,0.0,3.0,54,0.00,,,0.01,,2013-03-10 19:53:00,
2013-03-10 16:02:00,47.0,31.0,30.31,South,181,1.0,5.0,54,0.00,,,0.01,,2013-03-10 20:02:00,
2013-03-10 16:12:00,47.0,31.0,30.31,South,181,1.0,5.0,54,0.00,,,0.01,,2013-03-10 20:12:00,
2013-03-10 16:22:00,47.0,31.0,30.31,South,181,1.0,5.0,54,0.00,,,0.01,,2013-03-10 20:22:00,
2013-03-10 16:32:00,47.0,31.0,30.31,South,181,1.0,5.0,54,0.00,,,0.01,,2013-03-10 20:32:00,
2013-03-10 16:53:00,47.0,32.0,30.29,SE,125,1.0,4.0,55,0.00,,,0.01,,2013-03-10 20:53:00,
2013-03-10 17:02:00,47.0,32.0,30.29,SSW,195,2.0,7.0,56,0.00,,,0.01,,2013-03-10 21:02:00,
2013-03-10 17:12:00,47.0,32.0,30.29,SSW,195,2.0,7.0,56,0.00,,,0.01,,2013-03-10 21:12:00,
2013-03-10 17:23:00,47.0,32.0,30.29,SSW,195,2.0,7.0,56,0.00,,,0.01,,2013-03-10 21:23:00,
2013-03-10 17:32:00,46.0,31.0,30.29,SE,141,1.0,4.0,55,0.00,,,0.01,,2013-03-10 21:32:00,
2013-03-10 17:42:00,46.0,31.0,30.29,SE,141,1.0,4.0,55,0.00,,,0.01,,2013-03-10 21:42:00,
2013-03-10 17:53:00,46.0,32.0,30.29,SE,125,1.0,7.0,58,0.00,,,0.01,,2013-03-10 21:53:00,
2013-03-10 18:03:00,45.0,32.0,30.29,SE,128,1.0,4.0,60,0.00,,,0.01,,2013-03-10 22:03:00,
2013-03-10 18:12:00,45.0,32.0,30.29,SE,128,1.0,4.0,60,0.00,,,0.01,,2013-03-10 22:12:00,
2013-03-10 18:22:00,45.0,32.0,30.28,ESE,114,0.0,3.0,61,0.00,,,0.01,,2013-03-10 22:22:00,
2013-03-10 18:32:00,43.0,31.0,30.28,ESE,112,1.0,3.0,63,0.00,,,0.01,,2013-03-10 22:32:00,
2013-03-10 18:43:00,43.0,31.0,30.28,ESE,112,1.0,3.0,63,0.00,,,0.01,,2013-03-10 22:43:00,
2013-03-10 18:52:00,43.0,31.0,30.28,ESE,112,1.0,3.0,63,0.00,,,0.01,,2013-03-10 22:52:00,
2013-03-10 19:03:00,42.0,32.0,30.29,ESE,116,0.0,5.0,67,0.00,,,0.01,,2013-03-10 23:03:00,
2013-03-10 19:12:00,42.0,32.0,30.29,ESE,116,0.0,5.0,67,0.00,,,0.01,,2013-03-10 23:12:00,
2013-03-10 19:23:00,42.0,32.0,30.29,ESE,116,0.0,5.0,67,0.00,,,0.01,,2013-03-10 23:23:00,
2013-03-10 19:33:00,40.0,31.0,30.29,SE,133,1.0,7.0,70,0.00,,,0.01,,2013-03-10 23:33:00,
2013-03-10 19:43:00,40.0,31.0,30.29,SE,133,1.0,7.0,70,0.00,,,0.01,,2013-03-10 23:43:00,
2013-03-10 19:53:00,39.0,31.0,30.31,SE,133,0.0,3.0,73,0.00,,,0.01,,2013-03-10 23:53:00,
2013-03-10 20:03:00,39.0,31.0,30.31,SE,133,0.0,3.0,73,0.00,,,0.01,,2013-03-11 00:03:00,
2013-03-10 20:13:00,39.0,31.0,30.31,SE,133,0.0,3.0,73,0.00,,,0.01,,2013-03-11 00:13:00,
2013-03-10 20:23:00,39.0,31.0,30.31,SE,133,0.0,3.0,73,0.00,,,0.01,,2013-03-11 00:23:00,
2013-03-10 20:33:00,37.0,30.0,30.32,SE,144,0.0,2.0,77,0.00,,,0.01,,2013-03-11 00:33:00,
2013-03-10 20:43:00,37.0,30.0,30.32,SE,144,0.0,2.0,77,0.00,,,0.01,,2013-03-11 00:43:00,
2013-03-10 20:53:00,37.0,30.0,30.31,ESE,111,0.0,4.0,77,0.00,,,0.01,,2013-03-11 00:53:00,
2013-03-10 21:03:00,37.0,30.0,30.31,ESE,111,0.0,4.0,77,0.00,,,0.01,,2013-03-11 01:03:00,
2013-03-10 21:13:00,37.0,30.0,30.31,ESE,111,0.0,4.0,77,0.00,,,0.01,,2013-03-11 01:13:00,
2013-03-10 21:23:00,36.0,30.0,30.31,SSE,147,0.0,5.0,79,0.00,,,0.01,,2013-03-11 01:23:00,
2013-03-10 21:32:00,36.0,30.0,30.31,SSE,147,0.0,3.0,80,0.00,,,0.01,,2013-03-11 01:32:00,
2013-03-10 21:43:00,36.0,30.0,30.31,SSE,147,0.0,3.0,80,0.00,,,0.01,,2013-03-11 01:43:00,
2013-03-10 21:52:00,36.0,30.0,30.31,South,177,0.0,2.0,80,0.00,,,0.01,,2013-03-11 01:52:00,
2013-03-10 22:03:00,36.0,31.0,30.30,SSE,165,0.0,3.0,81,0.00,,,0.01,,2013-03-11 02:03:00,
2013-03-10 22:12:00,36.0,31.0,30.30,SSE,165,0.0,3.0,81,0.00,,,0.01,,2013-03-11 02:12:00,
2013-03-10 22:23:00,36.0,31.0,30.30,SSE,165,0.0,3.0,81,0.00,,,0.01,,2013-03-11 02:23:00,
2013-03-10 22:32:00,36.0,31.0,30.30,SSE,165,0.0,3.0,81,0.00,,,0.01,,2013-03-11 02:32:00,
2013-03-10 23:02:00,36.0,31.0,30.31,SSW,210,1.0,4.0,82,0.00,,,0.01,,2013-03-11 03:02:00,
2013-03-10 23:12:00,36.0,31.0,30.31,SSW,210,1.0,4.0,82,0.00,,,0.01,,2013-03-11 03:12:00,
2013-03-10 23:22:00,35.0,30.0,30.29,SE,142,0.0,4.0,83,0.00,,,0.01,,2013-03-11 03:22:00,
2013-03-10 23:32:00,35.0,30.0,30.29,SE,144,0.0,4.0,83,0.00,,,0.01,,2013-03-11 03:32:00,
2013-03-10 23:42:00,35.0,30.0,30.29,SE,144,0.0,4.0,83,0.00,,,0.01,,2013-03-11 03:42:00,
2013-03-10 23:52:00,35.0,30.0,30.29,SSE,162,0.0,1.0,83,0.00,,,0.01,,2013-03-11 03:52:00,